DW0307 Weather Reports


time (UTC)temp
C
wind
direction
speed
KPH
gust
KPH
rain 1hr
cm
rain 24hr
cm
rain mn
cm
humidity
%
barometer
mb
20260906180052 13 90 1.6 22.5 0.00 0.00 0.00 61 1027.0
20260906174548 13 96 12.9 17.7 0.00 0.00 0.00 60 1026.8
20260906173059 13 84 9.7 22.5 0.00 0.00 0.00 58 1026.6
20260906171553 14 102 8.0 16.1 0.00 0.00 0.00 55 1026.2
20260906170050 15 136 8.0 17.7 0.00 0.00 0.00 53 1026.0
20260906164558 16 117 9.7 17.7 0.00 0.00 0.00 50 1025.8
20260906163103 16 0 3.2 16.1 0.00 0.00 0.00 47 1025.8
20260906161553 17 235 12.9 20.9 0.00 0.00 0.00 46 1025.6
20260906160050 17 241 11.3 20.9 0.00 0.00 0.00 46 1025.5
20260906154559 17 242 17.7 25.7 0.00 0.00 0.00 45 1025.3
20260906153053 18 248 22.5 32.2 0.00 0.00 0.00 43 1025.3
20260906151550 18 244 24.1 32.2 0.00 0.00 0.00 42 1025.3
20260906150055 19 236 19.3 32.2 0.00 0.00 0.00 41 1025.1
20260906144551 19 228 24.1 33.8 0.00 0.00 0.00 41 1025.1
20260906143054 19 249 22.5 32.2 0.00 0.00 0.00 41 1025.0
20260906141601 19 225 25.7 35.4 0.00 0.00 0.00 40 1025.0
20260906140104 20 242 22.5 30.6 0.00 0.00 0.00 39 1024.8
20260906134603 20 51 12.9 24.1 0.00 0.00 0.00 38 1024.3
20260906133054 20 92 12.9 24.1 0.00 0.00 0.00 39 1024.6
20260906131547 20 22 11.3 22.5 0.00 0.00 0.00 38 1024.5
20260906130109 20 87 16.1 24.1 0.00 0.00 0.00 39 1024.1
20260906124553 21 234 9.7 17.7 0.00 0.00 0.00 37 1024.7
20260906123049 21 235 11.3 25.7 0.00 0.00 0.00 38 1024.7
20260906121607 21 296 11.3 20.9 0.00 0.00 0.00 35 1024.6
20260906120054 21 236 6.4 17.7 0.00 0.00 0.00 34 1024.6
20260906114604 20 103 8.0 20.9 0.00 0.00 0.00 37 1024.6
20260906113103 19 285 6.4 19.3 0.00 0.00 0.00 36 1024.6
20260906111625 20 343 11.3 30.6 0.00 0.00 0.00 34 1024.5
20260906110050 20 137 8.0 14.5 0.00 0.00 0.00 38 1024.4
20260906104548 19 340 6.4 29.0 0.00 0.00 0.00 35 1024.4
20260906103053 20 270 14.5 33.8 0.00 0.00 0.00 37 1024.2
20260906101551 19 299 14.5 29.0 0.00 0.00 0.00 37 1024.1
20260906100049 19 251 17.7 30.6 0.00 0.00 0.00 38 1024.1
20260906094558 19 247 24.1 37.0 0.00 0.00 0.00 48 1024.1
20260906093053 18 319 19.3 33.8 0.00 0.00 0.00 39 1024.0
20260906091552 18 289 16.1 37.0 0.00 0.00 0.00 40 1023.9
20260906090051 18 347 17.7 38.6 0.00 0.00 0.00 40 1024.0
20260906084557 17 304 27.4 41.8 0.00 0.00 0.00 44 1024.0
20260906083054 17 37 19.3 38.6 0.00 0.00 0.00 42 1023.8
20260906081556 17 312 30.6 56.3 0.00 0.00 0.00 43 1023.7
20260906080111 17 320 19.3 37.0 0.00 0.00 0.00 45 1023.4
20260906074559 17 292 25.7 48.3 0.00 0.00 0.00 45 1023.3
20260906073054 16 32 19.3 35.4 0.00 0.00 0.00 45 1022.9
20260906071559 16 331 24.1 43.5 0.00 0.00 0.00 46 1023.1
20260906070059 16 263 16.1 37.0 0.00 0.00 0.00 50 1023.0
20260906064555 16 329 20.9 33.8 0.00 0.00 0.00 47 1023.1
20260906063052 16 272 20.9 40.2 0.00 0.00 0.00 51 1022.9
20260906061606 16 296 20.9 35.4 0.00 0.00 0.00 52 1022.7
20260906060150 15 229 22.5 49.9 0.00 0.00 0.00 57 1022.4
20260906054554 15 259 16.1 37.0 0.00 0.00 0.00 58 1022.4
20260906053100 15 207 14.5 27.4 0.00 0.00 0.00 60 1022.3
20260906051553 13 234 0.0 24.1 0.00 0.00 0.00 64 1022.3
20260906050110 13 214 14.5 27.4 0.00 0.00 0.00 67 1022.2
20260906044559 12 273 4.8 16.1 0.00 0.00 0.00 69 1022.0
20260906043100 11 255 1.6 11.3 0.00 0.00 0.00 70 1021.8
20260906041550 11 238 9.7 20.9 0.00 0.00 0.00 71 1021.8
20260906040052 11 240 16.1 25.7 0.00 0.00 0.00 71 1021.6
20260906034601 12 249 14.5 33.8 0.00 0.00 0.00 70 1021.5
20260906033056 12 219 19.3 29.0 0.00 0.00 0.00 70 1021.4
20260906031613 12 243 20.9 33.8 0.00 0.00 0.00 70 1021.1
20260906030106 12 250 17.7 25.7 0.00 0.00 0.00 69 1020.9
20260906024603 12 269 17.7 25.7 0.00 0.00 0.00 68 1021.1
20260906023112 12 153 4.8 14.5 0.00 0.00 0.00 68 1020.9
20260906021601 12 201 9.7 16.1 0.00 0.00 0.00 69 1020.9
20260906020101 13 129 4.8 12.9 0.00 0.00 0.00 69 1020.9
20260906014554 12 128 3.2 9.7 0.00 0.00 0.00 70 1021.1
20260906013050 13 102 8.0 11.3 0.00 0.00 0.00 69 1021.1
20260906011553 13 0 3.2 11.3 0.00 0.00 0.00 68 1020.9
20260906004603 13 69 3.2 14.5 0.00 0.00 0.00 67 1021.0
20260906003105 13 118 4.8 17.7 0.00 0.00 0.00 66 1020.8
20260906001551 14 28 8.0 17.7 0.00 0.00 0.00 60 1020.8
20260906000108 14 76 8.0 17.7 0.00 0.00 0.00 56 1020.8
20260905234556 13 332 3.2 14.5 0.00 0.00 0.00 58 1020.6
20260905233106 14 248 0.0 6.4 0.00 0.00 0.00 55 1020.5
20260905231618 14 118 1.6 16.1 0.00 0.00 0.00 55 1020.6
20260905230104 13 132 6.4 12.9 0.00 0.00 0.00 56 1020.3
20260905224604 15 0 0.0 11.3 0.00 0.00 0.00 52 1020.3
20260905223105 16 0 4.8 24.1 0.00 0.00 0.00 49 1020.2
20260905221602 16 232 8.0 29.0 0.00 0.00 0.00 50 1020.3
20260905220056 16 246 1.6 24.1 0.00 0.00 0.00 52 1020.3
20260905214602 15 223 11.3 24.1 0.00 0.00 0.00 57 1020.1
20260905213104 16 221 19.3 33.8 0.00 0.00 0.00 58 1020.0
20260905211552 16 213 11.3 24.1 0.00 0.00 0.00 58 1020.1
20260905210103 16 227 11.3 25.7 0.00 0.00 0.00 55 1020.0
20260905204558 16 252 12.9 22.5 0.00 0.00 0.00 53 1020.0
20260905203053 16 227 9.7 16.1 0.00 0.00 0.00 56 1020.2
20260905201552 15 251 9.7 20.9 0.00 0.00 0.00 58 1020.3
20260905200100 16 225 6.4 17.7 0.00 0.00 0.00 60 1020.1
20260905194556 16 219 17.7 41.8 0.00 0.00 0.00 55 1020.0
20260905193051 15 263 11.3 16.1 0.00 0.00 0.00 55 1019.9
20260905191600 13 290 9.7 20.9 0.00 0.00 0.00 65 1020.0
20260905184602 14 245 8.0 14.5 0.00 0.00 0.00 64 1019.9
20260905183053 13 183 4.8 9.7 0.00 0.00 0.00 68 1019.6
20260905181607 13 313 1.6 6.4 0.00 0.00 0.00 68 1019.5